Location: Columbia
(38.9520°N, 92.3340°W)
Time: 16:39:26
(UTC-05:00)

Iridium 52 - Visible Passes

Search period start: 29 April 2016 00:00
Search period end: 09 May 2016 00:00
Orbit: 776 x 779 km, 86.4° (Epoch: 29 April)

Date Brightness Start Highest point End Pass type
(mag) Time Alt. Az. Time Alt. Az. Time Alt. Az.
29 Apr 6.0 21:33:19 10° S 21:38:31 89° ESE 21:43:47 10° N visible
30 Apr 6.3 21:00:08 10° SSE 21:05:05 47° E 21:10:05 10° NNE visible
30 Apr 8.5 22:42:30 10° WSW 22:46:03 18° WNW 22:49:39 10° NNW visible
01 May 7.1 20:27:33 10° SE 20:31:46 25° E 20:35:59 10° NNE visible
01 May 7.6 22:07:36 10° SW 22:12:17 33° W 22:16:59 10° NNW visible
02 May 6.5 21:33:29 10° SSW 21:38:38 63° W 21:43:49 10° N visible
03 May 6.0 20:59:57 10° S 21:05:07 70° E 21:10:19 10° N visible
03 May 8.8 22:44:11 10° W 22:46:22 13° WNW 22:48:34 10° NW visible
04 May 6.6 20:26:59 10° SSE 20:31:43 37° E 20:36:28 10° NNE visible
04 May 8.2 22:08:24 10° SW 22:12:31 23° WNW 22:16:39 10° NNW visible
05 May 7.2 21:33:52 10° SSW 21:38:47 43° W 21:43:45 10° NNW visible
06 May 6.2 21:00:00 10° S 21:05:11 81° W 21:10:26 10° N visible
07 May 8.7 22:09:35 10° WSW 22:12:47 16° WNW 22:15:59 10° NW visible
08 May 8.0 21:34:28 10° SW 21:38:58 29° W 21:43:31 10° NNW visible
